Погода в Понти ди Лиме

Португалия     41°46′03″N   8°34′38″W
темп.,
°C
ветер,
м/с
пор.,
м/с
влажн.,
%
обл.,
%
осадки,
мм/ч
давл.,
гПа
погр.,
м
12 мая, ср
ср1201:00+12юз4109648 9.9 10171005
04:00+10юз3109731 1.0 1016545
07:00+11з5119473 2.4 1017902
10:00+12зсз268299 0.6 1019910
13:00+13зсз357965 1.7 10211055
16:00+15зсз455727 0.3 10211531
19:00+13з346299 0.4 10221038
22:00+8юв1192100 0.0 102310
13 мая, чт
чт1301:00+10ююв1287100 0.1 102281
04:00+10ююв2297100 0.7 102070
07:00+11ю26100100 3.4 1018389
10:00+12ю25100100 12.4 1017345
13:00+14зюз41099100 19.8 1016969
16:00+16зсз368145 1.8 1016953
19:00+15зсз248015 1.9 1017827
22:00+10ссз22964 0.3 101923
14 мая, пт
пт1401:00+8с119686 0.3 101916
04:00+7ссв11976 0.0 101913
07:00+7всв11975 0.0 102030
10:00+13ююз106986 0.0 1021589
13:00+17зюз2250100 0.0 10201176
16:00+17зюз3357100 0.0 1019909
19:00+15юз2374100 0.0 1019551
22:00+12ю2287100 0.0 102092
15 мая, сб
сб1501:00+12ююв1289100 0.0 101984
04:00+12ююв2288100 0.0 101888
07:00+13ююв2389100 0.0 1018148
10:00+14ююв2487100 0.0 1019487
13:00+16ю2586100 0.0 1019777
16:00+19юз3575100 0.1 10181006
19:00+18юз2380100 0.3 1018663
22:00+13ю1198100 0.0 101912
16 мая, вс
вс1601:00+14ю1199100 0.1 101967
04:00+14ююв1199100 0.0 101847
07:00+14ю1197100 0.0 101874
10:00+15ю2393100 0.1 1018331
13:00+16ююз2392100 0.5 1019510
16:00+15юз1396100 0.5 1018287
19:00+15юз1198100 0.7 1018124
22:00+11ссз22975 0.1 102140